When you browse on this site, cookies collect data to enhance your experience and personalize the content and advertising you see.
Visit our Privacy Policy to learn more. By continuing to use the site, you agree to this use of cookies and data.
  • In Spain
  • List of Countries
  • For 7 days
  • Water Temperature
  • Weather Map
  • Weather Widgets
  • user-avatar
    Login

    Hourly Weather Cambridge

    Today, 15 September, Sunday

    Time Temperature Precipitation Wind Pressure Humidity
    00:00 +14°C° 0 mm 3 mps 768 mmHg 65%
    01:00 +13°C° 0 mm 3 mps 767 mmHg 67%
    02:00 +13°C° 0 mm 3 mps 767 mmHg 69%
    03:00 +12°C° 0 mm 3 mps 766 mmHg 71%
    04:00 +12°C° 0 mm 3 mps 766 mmHg 73%
    05:00 +12°C° 0 mm 3 mps 766 mmHg 75%
    06:00 +12°C° 0 mm 3 mps 766 mmHg 76%
    07:00 +14°C° 0 mm 3 mps 766 mmHg 73%
    08:00 +15°C° 0 mm 4 mps 766 mmHg 69%
    09:00 +18°C° 0 mm 4 mps 766 mmHg 65%
    10:00 +20°C° 0 mm 4 mps 766 mmHg 63%
    11:00 +21°C° 0 mm 4 mps 766 mmHg 60%
    12:00 +23°C° 0 mm 4 mps 766 mmHg 58%
    13:00 +23°C° 0 mm 4 mps 766 mmHg 58%
    14:00 +23°C° 0 mm 4 mps 766 mmHg 58%
    15:00 +23°C° 0 mm 4 mps 765 mmHg 59%
    16:00 +22°C° 0 mm 3 mps 765 mmHg 64%
    17:00 +23°C° 0 mm 2 mps 765 mmHg 68%
    18:00 +22°C° 0 mm 1 mps 765 mmHg 73%
    19:00 +21°C° 0 mm 1 mps 765 mmHg 77%
    20:00 +19°C° 0 mm 2 mps 765 mmHg 81%
    21:00 +18°C° 0 mm 2 mps 765 mmHg 85%
    22:00 +18°C° 0.1 mm 2 mps 765 mmHg 87%
    23:00 +18°C° 0.1 mm 1 mps 765 mmHg 89%

    Tomorrow, 16 September, Monday

    Time Temperature Precipitation Wind Pressure Humidity
    00:00 +18°C° 0.1 mm 1 mps 765 mmHg 90%
    01:00 +18°C° 0 mm 1 mps 764 mmHg 90%
    02:00 +17°C° 0 mm 2 mps 764 mmHg 89%
    03:00 +17°C° 0 mm 2 mps 763 mmHg 88%
    04:00 +17°C° 0 mm 2 mps 763 mmHg 88%
    05:00 +17°C° 0 mm 2 mps 763 mmHg 88%
    06:00 +17°C° 0 mm 3 mps 763 mmHg 89%
    07:00 +17°C° 0 mm 3 mps 763 mmHg 88%
    08:00 +17°C° 0 mm 3 mps 763 mmHg 86%
    09:00 +18°C° 0 mm 3 mps 763 mmHg 85%
    10:00 +18°C° 0 mm 3 mps 764 mmHg 84%
    11:00 +18°C° 0 mm 4 mps 764 mmHg 82%
    12:00 +18°C° 0 mm 4 mps 764 mmHg 81%
    13:00 +18°C° 0 mm 4 mps 764 mmHg 79%
    14:00 +18°C° 0 mm 4 mps 764 mmHg 76%
    15:00 +18°C° 0 mm 4 mps 764 mmHg 74%
    16:00 +17°C° 0 mm 3 mps 764 mmHg 74%
    17:00 +16°C° 0 mm 3 mps 764 mmHg 74%
    18:00 +16°C° 0 mm 3 mps 764 mmHg 75%
    19:00 +14°C° 0 mm 3 mps 765 mmHg 77%
    20:00 +14°C° 0 mm 2 mps 766 mmHg 79%
    21:00 +13°C° 0 mm 2 mps 766 mmHg 81%
    22:00 +12°C° 0 mm 2 mps 766 mmHg 83%
    23:00 +12°C° 0 mm 1 mps 767 mmHg 85%

    Day after tomorrow, 17 September, Tuesday

    Time Temperature Precipitation Wind Pressure Humidity
    00:00 +11°C° 0 mm 1 mps 767 mmHg 87%
    01:00 +11°C° 0 mm 1 mps 767 mmHg 88%
    02:00 +9°C° 0 mm 2 mps 767 mmHg 89%
    03:00 +9°C° 0 mm 2 mps 767 mmHg 90%
    04:00 +9°C° 0 mm 2 mps 767 mmHg 89%
    05:00 +8°C° 0 mm 2 mps 767 mmHg 89%
    06:00 +8°C° 0 mm 2 mps 767 mmHg 89%
    07:00 +10°C° 0 mm 2 mps 767 mmHg 80%
    08:00 +11°C° 0 mm 3 mps 768 mmHg 71%
    09:00 +13°C° 0 mm 3 mps 768 mmHg 61%
    10:00 +14°C° 0 mm 3 mps 768 mmHg 57%
    11:00 +16°C° 0 mm 3 mps 768 mmHg 52%
    12:00 +17°C° 0 mm 3 mps 768 mmHg 47%
    13:00 +17°C° 0 mm 3 mps 768 mmHg 47%
    14:00 +18°C° 0 mm 3 mps 767 mmHg 46%
    15:00 +18°C° 0 mm 3 mps 767 mmHg 46%
    16:00 +17°C° 0 mm 3 mps 767 mmHg 53%
    17:00 +14°C° 0 mm 3 mps 767 mmHg 59%
    18:00 +13°C° 0 mm 3 mps 767 mmHg 66%
    19:00 +12°C° 0 mm 3 mps 768 mmHg 69%
    20:00 +12°C° 0 mm 2 mps 768 mmHg 73%
    21:00 +10°C° 0 mm 2 mps 769 mmHg 76%
    22:00 +10°C° 0 mm 2 mps 769 mmHg 77%
    23:00 +10°C° 0 mm 1 mps 769 mmHg 78%

    18 September, Wednesday

    Time Temperature Precipitation Wind Pressure Humidity
    00:00 +10°C° 0 mm 1 mps 769 mmHg 78%
    01:00 +10°C° 0 mm 1 mps 769 mmHg 79%
    02:00 +9°C° 0 mm 1 mps 769 mmHg 79%
    03:00 +8°C° 0 mm 0 mps 769 mmHg 80%
    04:00 +8°C° 0 mm 0 mps 769 mmHg 79%
    05:00 +9°C° 0 mm 0 mps 769 mmHg 78%
    06:00 +9°C° 0 mm 0 mps 769 mmHg 77%
    07:00 +10°C° 0 mm 0 mps 769 mmHg 73%
    08:00 +11°C° 0 mm 0 mps 770 mmHg 70%
    09:00 +12°C° 0 mm 0 mps 770 mmHg 66%
    10:00 +13°C° 0 mm 0 mps 770 mmHg 62%
    11:00 +15°C° 0 mm 1 mps 770 mmHg 58%
    12:00 +18°C° 0 mm 1 mps 770 mmHg 54%
    13:00 +18°C° 0 mm 1 mps 770 mmHg 54%
    14:00 +17°C° 0 mm 2 mps 769 mmHg 54%
    15:00 +17°C° 0 mm 2 mps 769 mmHg 54%
    16:00 +17°C° 0 mm 2 mps 769 mmHg 59%
    17:00 +16°C° 0 mm 2 mps 769 mmHg 64%
    18:00 +15°C° 0 mm 2 mps 770 mmHg 68%
    19:00 +14°C° 0 mm 2 mps 770 mmHg 71%
    20:00 +14°C° 0 mm 2 mps 770 mmHg 74%
    21:00 +13°C° 0 mm 2 mps 771 mmHg 77%
    22:00 +13°C° 0 mm 2 mps 771 mmHg 78%
    23:00 +12°C° 0 mm 2 mps 771 mmHg 79%

    19 September, Thursday

    Time Temperature Precipitation Wind Pressure Humidity
    00:00 +12°C° 0 mm 2 mps 771 mmHg 80%
    01:00 +12°C° 0 mm 2 mps 771 mmHg 84%
    02:00 +10°C° 0 mm 2 mps 771 mmHg 88%
    03:00 +9°C° 0 mm 2 mps 771 mmHg 91%
    04:00 +9°C° 0 mm 2 mps 771 mmHg 90%
    05:00 +10°C° 0 mm 2 mps 772 mmHg 89%
    06:00 +10°C° 0 mm 2 mps 772 mmHg 88%
    07:00 +12°C° 0 mm 2 mps 772 mmHg 79%
    08:00 +12°C° 0 mm 3 mps 773 mmHg 70%
    09:00 +14°C° 0 mm 4 mps 773 mmHg 62%
    10:00 +14°C° 0 mm 3 mps 773 mmHg 55%
    11:00 +16°C° 0 mm 3 mps 773 mmHg 49%
    12:00 +17°C° 0 mm 3 mps 773 mmHg 43%
    13:00 +17°C° 0 mm 3 mps 773 mmHg 43%
    14:00 +18°C° 0 mm 3 mps 773 mmHg 42%
    15:00 +18°C° 0 mm 3 mps 772 mmHg 41%
    16:00 +16°C° 0 mm 3 mps 772 mmHg 48%
    17:00 +14°C° 0 mm 3 mps 772 mmHg 55%
    18:00 +13°C° 0 mm 3 mps 773 mmHg 62%
    19:00 +12°C° 0 mm 3 mps 773 mmHg 66%
    20:00 +11°C° 0 mm 3 mps 773 mmHg 70%
    21:00 +10°C° 0 mm 2 mps 774 mmHg 74%
    22:00 +9°C° 0 mm 2 mps 774 mmHg 74%
    23:00 +9°C° 0 mm 2 mps 773 mmHg 75%

    20 September, Friday

    Time Temperature Precipitation Wind Pressure Humidity
    00:00 +9°C° 0 mm 2 mps 773 mmHg 76%
    01:00 +9°C° 0 mm 2 mps 773 mmHg 77%
    02:00 +9°C° 0 mm 2 mps 773 mmHg 78%
    03:00 +8°C° 0 mm 2 mps 773 mmHg 79%
    04:00 +8°C° 0 mm 2 mps 773 mmHg 81%
    05:00 +8°C° 0 mm 2 mps 773 mmHg 83%
    06:00 +8°C° 0 mm 2 mps 772 mmHg 85%
    07:00 +10°C° 0 mm 3 mps 772 mmHg 77%
    08:00 +12°C° 0 mm 3 mps 772 mmHg 70%
    09:00 +13°C° 0 mm 4 mps 772 mmHg 62%
    10:00 +14°C° 0 mm 4 mps 772 mmHg 59%
    11:00 +17°C° 0 mm 4 mps 772 mmHg 55%
    12:00 +18°C° 0 mm 4 mps 771 mmHg 52%
    13:00 +18°C° 0 mm 4 mps 771 mmHg 52%
    14:00 +17°C° 0 mm 5 mps 770 mmHg 52%
    15:00 +17°C° 0 mm 5 mps 770 mmHg 53%
    16:00 +15°C° 0 mm 4 mps 769 mmHg 58%
    17:00 +14°C° 0 mm 4 mps 769 mmHg 63%
    18:00 +12°C° 0 mm 4 mps 768 mmHg 68%
    19:00 +12°C° 0 mm 4 mps 768 mmHg 71%
    20:00 +11°C° 0 mm 4 mps 768 mmHg 74%
    21:00 +10°C° 0 mm 4 mps 768 mmHg 78%
    22:00 +11°C° 0 mm 3 mps 768 mmHg 79%
    23:00 +11°C° 0 mm 3 mps 767 mmHg 81%
    Show more